Theta_e
296 297 297 298 299 299 299 300 301 302 302 302 303 303 304 305 305 304 306 309 313 313 314 315 316 316 318 316 316 317 312 314 316 318 320 322 319 327 330 330 339 340 337 337 338
296 296 296 297 297 298 299 299 300 301 301 302 303 303 303 304 306 313 313 311 309 309 309 308 312 317 319 318 317 315 313 315 318 319 319 320 320 321 328 329 339 339 338 338 338
296 296 296 296 295 296 297 298 299 300 300 301 302 303 303 304 318 316 312 310 309 310 313 315 316 316 318 318 318 316 314 316 318 320 320 320 320 322 324 326 338 338 338 338 338
295 295 295 295 295 295 296 297 297 299 300 301 302 302 303 307 316 310 308 308 308 308 312 316 318 317 317 315 317 313 315 316 317 319 320 318 321 321 322 323 338 339 338 337 338
295 295 295 295 296 296 296 297 298 299 300 301 302 302 307 310 310 309 309 309 307 308 309 311 317 319 317 317 317 314 314 316 316 317 319 320 319 320 321 322 323 339 338 337 336
295 295 295 295 295 296 297 299 300 300 301 301 302 302 308 311 310 309 307 307 308 307 308 310 314 315 318 317 317 318 319 317 316 317 317 318 318 320 322 322 322 340 339 337 338
295 295 295 295 295 297 299 301 301 301 302 302 303 303 309 310 307 307 306 307 308 309 309 307 310 311 315 317 319 319 318 317 317 317 317 319 318 318 321 321 321 322 341 338 338
295 295 295 295 296 299 301 303 303 304 305 308 308 310 311 307 307 306 305 305 306 307 311 312 307 308 310 316 318 318 316 317 318 316 317 318 318 319 320 321 321 321 321 341 339
295 295 295 295 297 301 302 304 305 305 306 308 308 310 309 308 306 307 307 306 306 307 309 310 312 307 308 311 314 316 315 316 317 317 316 316 317 318 320 321 320 321 321 322 341
295 295 295 295 298 302 304 306 308 304 307 310 308 308 307 307 308 308 307 307 306 306 307 311 313 305 305 307 312 314 314 312 315 317 318 317 315 317 319 320 319 320 321 321 322
295 295 295 295 302 302 303 306 305 306 305 306 306 306 306 307 309 309 308 308 308 307 305 308 308 311 306 307 311 314 315 315 313 313 317 317 318 317 317 319 319 319 321 321 321
295 295 295 298 304 304 302 304 303 303 307 307 306 306 307 308 309 309 309 308 308 305 306 305 306 309 312 310 310 313 316 315 315 315 317 316 315 318 318 317 319 319 319 321 322
295 295 295 300 304 305 303 302 303 303 306 309 307 308 308 308 308 309 308 309 308 307 306 304 306 307 309 311 311 310 310 314 315 315 316 316 315 316 317 320 319 320 320 321 321
295 295 296 298 304 305 304 303 302 307 310 307 307 309 307 307 308 309 308 309 309 309 310 306 306 307 308 310 311 312 311 312 314 316 316 315 315 316 317 318 317 318 320 321 321
295 296 298 302 305 306 304 300 307 309 300 306 307 308 306 306 306 309 308 309 310 310 310 310 310 307 306 306 311 313 314 313 313 314 314 315 314 316 317 318 317 317 321 321 321
295 296 296 304 306 306 302 308 309 306 300 306 307 306 306 305 306 308 307 308 310 309 309 309 310 309 306 308 309 311 313 314 312 312 313 315 315 315 317 318 318 319 321 321 321
295 295 298 300 301 301 306 309 305 298 307 306 306 306 306 305 307 307 306 306 309 310 309 309 309 309 308 307 308 311 315 316 312 312 314 315 316 315 317 318 318 319 320 321 321
299 299 300 298 296 303 310 306 298 306 306 306 306 307 306 307 307 307 306 305 309 309 309 309 310 310 310 309 311 313 315 317 314 313 315 316 317 316 316 317 318 318 318 320 320
303 305 304 296 301 309 309 302 300 306 305 305 307 306 307 307 306 307 306 309 310 310 311 309 309 309 309 310 311 312 314 312 312 315 315 316 316 316 317 317 317 317 317 318 320
303 304 306 298 304 308 304 307 307 305 305 306 307 307 306 306 307 307 307 310 310 310 309 310 311 309 309 310 310 310 312 312 315 318 318 315 317 317 316 317 317 316 317 317 318
304 306 306 301 307 305 298 303 307 304 304 305 305 305 306 306 306 306 307 309 308 309 308 310 309 308 309 309 308 310 312 314 314 315 314 318 314 314 315 316 317 317 317 317 318
304 301 302 305 301 302 299 306 304 305 303 303 304 305 305 304 305 305 306 306 308 308 308 309 309 311 307 307 309 310 312 312 315 316 316 318 317 314 314 315 316 316 317 316 317
305 304 302 304 300 298 303 306 303 303 303 303 303 303 303 303 304 306 304 304 303 303 304 305 305 306 305 306 308 309 311 311 312 314 316 317 318 315 313 315 315 316 316 316 316
303 298 303 303 301 302 304 304 303 302 302 302 302 303 303 304 304 303 303 303 302 302 303 304 305 306 307 308 309 310 310 310 312 313 314 315 315 313 313 313 313 314 314 314 315
302 301 302 300 296 302 304 303 304 304 303 302 302 303 303 302 302 302 302 301 302 301 301 302 306 307 306 307 306 306 308 308 309 310 311 310 311 310 311 311 311 311 312 312 313
299 303 302 302 304 303 302 299 304 304 303 302 303 303 301 301 301 301 301 300 300 301 301 300 300 302 301 302 304 305 305 306 307 308 309 309 309 308 309 309 310 311 311 312 313
303 302 301 304 304 302 302 304 305 303 302 302 301 301 301 301 301 300 300 299 300 300 300 300 300 300 301 304 303 298 304 306 307 307 308 309 309 310 309 309 309 311 311 311 311
Wind_Speed
5 4 4 3 5 6 8 10 11 12 13 14 12 11 11 11 10 10 5 6 12 16 16 18 13 7 16 15 11 12 1 4 7 7 9 25 12 17 9 7 19 14 29 38 41
6 7 7 7 7 7 7 6 8 10 11 12 11 11 12 12 11 9 8 9 10 16 16 14 11 10 13 12 9 6 3 7 6 15 17 18 23 26 6 10 12 22 32 45 43
7 8 8 9 10 11 12 13 11 8 8 9 9 8 8 9 8 6 10 12 12 7 7 9 9 10 12 15 10 6 10 13 22 28 28 21 23 32 15 5 24 39 47 46 45
7 8 9 9 9 11 12 13 13 12 10 9 9 6 4 7 5 10 15 13 8 9 9 13 12 10 5 5 10 9 20 20 27 28 27 13 27 23 15 15 13 29 47 50 50
10 10 10 10 10 11 11 11 12 12 12 10 9 8 3 8 11 10 10 13 14 9 10 14 12 13 5 8 15 14 15 29 37 31 30 28 16 16 24 28 17 27 44 47 50
10 11 9 9 10 11 12 12 12 11 10 10 8 5 7 6 9 9 15 16 17 15 8 6 8 19 15 14 8 15 24 22 31 33 30 18 20 16 31 25 26 20 39 42 43
10 10 8 8 10 11 11 10 10 10 9 9 9 7 12 7 12 17 16 16 12 14 17 12 10 13 18 12 15 20 13 13 20 19 18 21 17 9 28 27 28 24 34 42 42
10 9 9 10 13 16 13 11 9 13 12 12 15 13 5 11 15 20 22 19 11 12 13 11 14 16 14 12 13 6 8 5 12 14 21 12 19 16 24 24 29 30 23 35 43
11 10 11 13 15 16 9 6 6 16 13 9 14 10 5 7 21 19 21 23 23 13 15 14 15 18 14 5 6 6 7 9 10 12 10 12 15 13 24 25 29 35 33 24 40
12 11 11 12 14 15 7 6 9 15 9 9 11 6 7 13 16 19 15 17 19 16 18 6 7 5 3 5 12 6 10 10 15 5 14 20 16 12 29 28 27 27 35 40 31
12 10 9 9 12 21 14 6 4 6 10 4 4 2 7 13 12 12 17 17 15 17 6 14 6 12 10 14 19 17 21 22 15 9 18 18 18 21 23 30 28 29 33 38 44
11 8 7 8 11 18 21 13 11 6 5 3 1 3 7 8 11 15 16 12 11 8 11 8 13 15 14 18 19 21 23 26 22 19 18 14 11 13 18 25 34 34 31 30 42
9 7 6 5 14 15 13 14 4 3 2 2 4 3 9 7 9 11 19 12 4 6 6 7 16 25 22 21 20 23 23 21 21 16 22 17 19 16 18 27 30 38 42 36 32
7 6 6 2 5 10 8 11 6 4 3 4 4 3 10 17 4 7 13 7 6 8 10 7 10 19 24 23 20 23 19 22 22 16 15 2 15 14 14 17 9 28 34 27 25
7 6 7 11 5 9 9 7 4 3 6 5 2 3 17 15 19 7 9 2 2 7 4 11 16 17 21 20 23 17 15 21 23 15 15 11 7 10 12 20 8 8 14 18 26
6 5 2 5 6 9 8 2 3 4 1 0 4 9 13 17 11 8 16 14 3 3 7 11 20 15 21 16 22 25 22 20 16 15 16 16 14 12 10 11 7 5 18 25 23
6 4 5 5 5 6 2 3 4 6 8 5 7 9 9 9 5 12 11 9 2 8 14 20 10 16 10 15 19 19 13 8 10 11 11 14 12 12 7 11 9 11 14 15 21
7 6 8 9 9 2 4 3 8 6 5 8 9 14 2 13 8 9 8 5 7 10 10 8 15 17 20 16 14 10 7 6 10 9 12 15 13 5 11 19 29 30 32 25 26
6 7 8 12 3 5 5 6 6 3 5 7 10 5 6 14 8 10 9 6 6 11 8 7 9 24 10 16 4 8 10 11 9 7 9 4 11 15 17 19 18 24 30 22 21
2 4 5 6 3 6 4 3 1 2 5 4 3 5 7 9 8 12 7 7 7 9 9 5 11 8 22 9 8 11 8 6 2 3 6 5 7 8 7 21 16 17 25 27 22
5 1 3 3 3 5 3 4 3 8 5 4 4 5 5 8 9 9 5 4 7 8 13 5 3 13 13 7 16 15 8 6 1 3 3 4 5 8 6 17 12 18 25 33 29
2 2 5 2 4 4 2 4 3 2 5 3 3 4 4 8 5 5 4 9 5 9 6 4 4 5 18 21 12 9 10 12 4 7 4 3 7 19 15 15 23 19 25 29 30
2 2 6 4 3 0 5 4 2 2 3 3 3 3 5 5 4 5 7 17 15 14 10 7 3 7 13 5 9 8 9 8 5 3 4 4 7 15 20 10 19 17 24 28 28
3 1 1 4 4 1 1 3 2 5 2 1 4 7 4 5 6 6 11 8 23 21 22 14 5 6 6 11 14 14 14 11 6 3 6 6 19 18 22 14 13 13 21 30 26
5 4 3 2 3 3 2 1 3 3 5 0 1 4 6 4 8 9 9 17 14 15 11 4 3 6 13 15 16 18 20 16 13 10 7 10 17 17 13 13 16 25 19 21 28
6 4 3 2 11 9 5 3 3 5 1 2 4 6 6 4 6 14 12 7 6 4 6 8 4 13 14 13 13 18 18 19 17 15 13 12 15 14 21 24 28 26 31 31 27
7 5 1 2 3 4 5 5 7 2 2 3 6 4 5 10 12 15 20 21 18 14 12 7 3 2 5 6 13 8 9 14 12 12 9 5 3 14 17 15 20 23 26 27 27
Wind_Direction
6 9 6 345 333 328 324 318 321 326 327 326 330 330 333 331 323 320 315 297 285 284 285 293 293 312 308 277 274 272 298 252 253 253 276 323 352 302 231 232 157 181 163 163 160
5 4 6 8 6 357 349 341 334 330 321 320 324 332 334 333 348 50 31 1 310 295 294 296 303 309 318 291 277 171 196 240 233 270 289 314 329 319 251 247 94 109 144 154 158
3 1 0 5 4 3 2 360 358 359 347 339 336 332 328 337 88 51 359 347 359 3 2 353 324 315 282 278 260 265 237 265 267 274 285 291 306 311 329 262 137 135 147 159 163
358 358 3 6 7 6 0 354 349 353 356 4 4 11 353 21 66 14 7 359 352 323 354 330 318 271 266 250 264 270 271 275 279 275 278 288 298 306 319 299 159 169 167 167 169
1 10 15 16 16 7 356 347 345 347 347 1 10 26 95 66 48 357 338 327 334 346 337 334 325 322 285 286 301 252 261 269 278 281 278 283 281 274 298 295 324 179 166 172 176
7 14 14 18 12 1 352 351 353 355 353 355 6 34 93 93 347 325 338 358 350 340 310 328 297 318 298 283 270 308 308 272 266 271 271 264 266 273 271 283 298 174 179 179 179
11 9 14 17 9 4 358 7 20 29 21 16 13 42 72 8 45 18 343 343 344 333 308 300 286 308 322 323 312 310 304 307 269 260 269 265 271 240 268 270 278 283 189 185 189
15 12 21 19 12 7 4 6 25 44 48 66 53 72 56 29 359 339 338 334 323 333 293 290 292 285 290 289 314 299 291 255 252 259 264 230 252 263 263 259 266 270 268 197 194
12 14 23 20 13 7 359 6 74 44 47 63 52 31 63 335 347 11 4 347 335 338 318 299 279 250 269 300 300 237 252 256 279 229 247 216 246 257 259 249 242 257 264 249 207
13 15 22 21 16 18 16 46 80 46 38 37 35 325 20 347 3 2 352 351 348 335 333 309 276 222 196 214 236 226 256 264 250 291 238 252 258 234 252 248 249 243 254 257 253
9 12 18 26 37 36 52 68 44 40 69 36 4 17 333 330 12 357 3 354 355 354 328 301 275 239 239 226 252 261 275 275 273 252 254 258 260 249 237 240 237 242 239 246 252
8 12 19 39 59 46 39 72 31 17 336 99 22 287 329 305 310 348 358 16 1 350 330 331 284 271 267 243 254 254 253 259 277 275 285 286 279 272 245 237 227 228 234 241 246
8 8 10 52 64 61 20 41 343 289 236 293 193 203 320 304 299 10 359 352 308 310 332 299 297 304 296 277 250 255 259 266 263 271 273 274 284 289 285 236 232 222 231 239 247
5 8 9 31 54 56 42 347 16 83 91 141 210 205 336 326 222 357 358 326 344 324 312 271 293 297 299 290 285 254 255 265 269 271 256 219 276 277 293 266 214 213 220 238 262
6 13 34 62 75 38 331 353 73 43 65 323 77 331 341 346 309 302 324 254 29 331 341 277 299 292 287 295 297 303 307 252 260 267 271 238 262 264 272 289 236 247 270 266 268
4 17 54 63 48 345 335 50 73 51 354 27 45 359 347 327 302 355 15 357 87 321 297 284 290 272 262 277 292 293 294 293 260 249 257 255 229 249 263 265 276 228 252 268 283
9 47 79 44 13 356 341 74 48 87 271 25 348 333 298 282 323 21 356 352 33 353 348 326 322 330 222 269 283 271 301 283 259 247 253 249 232 227 252 267 281 310 274 319 321
62 81 50 19 350 348 38 61 70 262 27 5 335 300 298 17 9 345 322 337 46 17 322 342 324 14 318 313 318 297 270 279 277 257 271 262 243 247 256 268 278 287 293 300 294
85 67 42 356 66 55 30 53 177 351 19 337 319 358 7 357 345 345 353 30 49 27 3 311 300 307 330 332 281 300 271 288 304 293 274 252 299 290 231 256 273 276 274 279 286
140 125 294 20 66 42 69 148 253 25 12 333 314 27 350 338 352 354 321 56 1 354 357 309 299 308 330 307 331 347 340 275 255 291 277 269 230 275 255 244 260 273 285 288 289
120 135 331 43 87 49 113 216 296 17 344 9 2 311 325 333 354 330 300 76 6 348 14 351 292 305 326 10 330 326 20 2 289 131 196 322 296 215 316 356 7 22 20 23 19
80 43 1 155 47 33 140 349 343 286 349 304 279 289 347 352 310 319 291 356 354 326 352 341 271 288 301 289 47 77 57 34 7 351 312 269 263 280 350 344 9 350 2 358 1
132 134 48 41 127 175 262 255 267 291 343 20 335 359 356 332 310 289 346 335 357 4 357 340 339 325 321 356 5 43 3 5 309 220 281 340 278 338 322 351 340 339 345 347 346
159 119 95 108 119 185 195 302 290 158 246 285 306 312 309 320 299 305 315 312 335 328 319 302 223 225 261 292 310 314 321 313 256 259 295 273 287 309 311 326 322 329 343 327 326
177 203 200 193 258 226 309 306 314 283 174 261 269 336 336 320 309 277 316 319 327 318 338 348 293 316 293 307 311 304 302 313 307 292 270 285 289 304 301 326 337 346 323 322 341
170 169 176 239 161 172 193 227 243 280 244 182 301 320 344 315 285 304 318 328 268 354 12 333 296 325 303 291 282 290 289 287 284 285 277 289 289 348 2 22 359 35 24 25 22
182 192 184 225 234 154 205 199 220 188 313 251 262 287 298 288 308 311 300 284 266 279 281 261 258 323 270 301 325 315 237 249 268 286 288 293 316 347 342 338 335 31 23 31 17